SWA4133 KRIC-KBWI

Flight info

Callsign SWA4133
Flight time 0h 25m
Altitude 11000
Route LUCYL6 LUCYL SHLBK LOUIE MIIDY MIIDY3
Aircraft B38M/M-SADE2E3GIJ4J7RWZ/LB1D1

Departure

Time 2026-05-04 21:15
Airport Richmond International Airport (KRIC)

Arrival

Time 2026-05-04 21:40
Airport Baltimore/Washington International Thurgood Marshall Airport (KBWI)
Time Latitude Longitude Altitude Speed Heading
2026-05-04 20:51 37.50626 -77.33070 166 ft 0 kts 284°
2026-05-04 21:07 37.50626 -77.33069 166 ft 0 kts 284°
2026-05-04 21:07 37.50626 -77.33068 166 ft 1 kts 284°
2026-05-04 21:07 37.50622 -77.33050 166 ft 2 kts 284°
2026-05-04 21:08 37.50619 -77.33032 166 ft 2 kts 284°
2026-05-04 21:08 37.50615 -77.33014 166 ft 2 kts 284°
2026-05-04 21:08 37.50610 -77.32996 166 ft 2 kts 312°
2026-05-04 21:08 37.50598 -77.32986 166 ft 2 kts 352°
2026-05-04 21:09 37.50589 -77.32986 166 ft 1 kts 13°
2026-05-04 21:09 37.50583 -77.32988 166 ft 0 kts 14°
2026-05-04 21:11 37.50588 -77.32987 166 ft 2 kts 14°
2026-05-04 21:11 37.50619 -77.32977 166 ft 6 kts 12°
2026-05-04 21:11 37.50679 -77.32960 166 ft 11 kts 13°
2026-05-04 21:12 37.50770 -77.32933 167 ft 15 kts 13°
2026-05-04 21:12 37.50887 -77.32899 167 ft 18 kts 13°
2026-05-04 21:12 37.51018 -77.32859 167 ft 20 kts 13°
2026-05-04 21:12 37.51156 -77.32817 168 ft 21 kts 14°
2026-05-04 21:13 37.51311 -77.32770 168 ft 23 kts 13°
2026-05-04 21:13 37.51452 -77.32729 168 ft 19 kts 14°
2026-05-04 21:13 37.51575 -77.32690 169 ft 17 kts 13°
2026-05-04 21:13 37.51639 -77.32610 169 ft 13 kts 84°
2026-05-04 21:14 37.51638 -77.32475 169 ft 17 kts 93°
2026-05-04 21:14 37.51605 -77.32317 170 ft 24 kts 139°
2026-05-04 21:14 37.51268 -77.32041 168 ft 92 kts 148°
2026-05-04 21:14 37.50543 -77.31461 164 ft 151 kts 149°
2026-05-04 21:15 37.49604 -77.30662 624 ft 166 kts 149°
2026-05-04 21:15 37.48643 -77.29845 1302 ft 172 kts 150°
2026-05-04 21:15 37.47662 -77.28810 1633 ft 204 kts 129°
2026-05-04 21:15 37.47245 -77.26971 1962 ft 240 kts 88°
2026-05-04 21:16 37.47636 -77.24898 2769 ft 248 kts 79°
2026-05-04 21:16 37.47915 -77.22774 3529 ft 253 kts 88°
2026-05-04 21:16 37.47996 -77.20460 3950 ft 275 kts 94°
2026-05-04 21:16 37.47995 -77.18012 4581 ft 288 kts 89°
2026-05-04 21:17 37.48296 -77.15480 5420 ft 294 kts 77°
2026-05-04 21:17 37.49038 -77.13093 6197 ft 301 kts 63°
2026-05-04 21:17 37.50148 -77.10830 7055 ft 304 kts 56°
2026-05-04 21:17 37.51345 -77.08671 7878 ft 307 kts 54°
2026-05-04 21:18 37.52597 -77.06490 8682 ft 311 kts 54°
2026-05-04 21:18 37.53875 -77.04266 9458 ft 315 kts 53°
2026-05-04 21:18 37.55141 -77.02035 10225 ft 319 kts 54°
2026-05-04 21:18 37.56434 -76.99730 10902 ft 326 kts 54°
2026-05-04 21:19 37.57780 -76.97330 11018 ft 352 kts 54°
2026-05-04 21:19 37.59239 -76.94733 11009 ft 369 kts 54°
2026-05-04 21:19 37.60720 -76.92099 11005 ft 370 kts 54°
2026-05-04 21:19 37.62208 -76.89451 11006 ft 370 kts 54°
2026-05-04 21:20 37.63689 -76.86814 11008 ft 369 kts 54°
2026-05-04 21:20 37.65182 -76.84153 11009 ft 369 kts 54°
2026-05-04 21:20 37.66666 -76.81509 11007 ft 369 kts 55°
2026-05-04 21:20 37.68151 -76.78857 11009 ft 369 kts 55°
2026-05-04 21:21 37.69624 -76.76229 11009 ft 369 kts 54°
2026-05-04 21:21 37.71322 -76.73782 11003 ft 369 kts 41°
2026-05-04 21:21 37.73388 -76.71903 11012 ft 368 kts 27°
2026-05-04 21:21 37.75721 -76.70614 11009 ft 365 kts 15°
2026-05-04 21:22 37.78195 -76.69965 11008 ft 362 kts
2026-05-04 21:22 37.80712 -76.69736 11011 ft 362 kts
2026-05-04 21:22 37.83225 -76.69545 11002 ft 361 kts
2026-05-04 21:22 37.85728 -76.69365 11054 ft 361 kts
2026-05-04 21:23 37.88237 -76.69189 11064 ft 363 kts
2026-05-04 21:23 37.90753 -76.69013 11061 ft 362 kts
2026-05-04 21:23 37.93259 -76.68840 11060 ft 362 kts
2026-05-04 21:23 37.95765 -76.68667 11060 ft 362 kts
2026-05-04 21:24 37.98257 -76.68494 11060 ft 362 kts
2026-05-04 21:24 38.00762 -76.68322 11059 ft 362 kts
2026-05-04 21:24 38.03266 -76.68149 11059 ft 362 kts
2026-05-04 21:24 38.05782 -76.67975 11059 ft 362 kts
2026-05-04 21:25 38.08293 -76.67802 11059 ft 362 kts
2026-05-04 21:25 38.10796 -76.67582 11057 ft 362 kts
2026-05-04 21:25 38.13295 -76.67232 11056 ft 363 kts
2026-05-04 21:25 38.15802 -76.66863 11053 ft 363 kts
2026-05-04 21:26 38.18338 -76.66498 11051 ft 363 kts
2026-05-04 21:26 38.20823 -76.66149 11049 ft 362 kts
2026-05-04 21:26 38.23328 -76.65802 11047 ft 362 kts
2026-05-04 21:26 38.25841 -76.65456 11045 ft 362 kts
2026-05-04 21:27 38.28318 -76.65116 11045 ft 362 kts
2026-05-04 21:27 38.30840 -76.64770 11045 ft 362 kts
2026-05-04 21:27 38.33323 -76.64429 11045 ft 362 kts
2026-05-04 21:27 38.35829 -76.64086 11045 ft 362 kts
2026-05-04 21:28 38.38319 -76.63744 11045 ft 362 kts
2026-05-04 21:28 38.40827 -76.63400 11045 ft 361 kts
2026-05-04 21:28 38.43314 -76.63059 11043 ft 361 kts
2026-05-04 21:28 38.45798 -76.62717 11042 ft 361 kts
2026-05-04 21:29 38.48310 -76.62373 11040 ft 362 kts
2026-05-04 21:29 38.50812 -76.62028 11038 ft 362 kts
2026-05-04 21:29 38.53318 -76.61683 11037 ft 362 kts
2026-05-04 21:29 38.55790 -76.61343 11036 ft 362 kts
2026-05-04 21:30 38.58307 -76.60995 11035 ft 362 kts
2026-05-04 21:30 38.60802 -76.60651 11033 ft 362 kts
2026-05-04 21:30 38.63277 -76.60309 11024 ft 360 kts
2026-05-04 21:30 38.65728 -76.59969 10687 ft 352 kts
2026-05-04 21:31 38.70493 -76.59307 9959 ft 327 kts
2026-05-04 21:31 38.72684 -76.59001 9939 ft 311 kts
2026-05-04 21:31 38.74805 -76.58707 9704 ft 309 kts
2026-05-04 21:32 38.76930 -76.58415 9166 ft 308 kts
2026-05-04 21:32 38.79045 -76.58123 8753 ft 308 kts
2026-05-04 21:32 38.81194 -76.57825 8318 ft 308 kts
2026-05-04 21:32 38.83306 -76.57532 7886 ft 305 kts
2026-05-04 21:33 38.85389 -76.57243 7480 ft 300 kts
2026-05-04 21:33 38.87436 -76.56959 7080 ft 299 kts
2026-05-04 21:33 38.89490 -76.56673 6666 ft 296 kts
2026-05-04 21:33 38.91490 -76.56322 6263 ft 287 kts 13°
2026-05-04 21:34 38.93387 -76.55656 5903 ft 277 kts 19°
2026-05-04 21:34 38.95174 -76.54903 5589 ft 267 kts 20°
2026-05-04 21:34 38.96897 -76.54144 5319 ft 256 kts 18°
2026-05-04 21:34 38.98521 -76.53348 5130 ft 244 kts 17°
2026-05-04 21:35 39.00095 -76.52734 5006 ft 233 kts
2026-05-04 21:35 39.01702 -76.52483 4710 ft 232 kts
2026-05-04 21:35 39.03302 -76.52368 4350 ft 228 kts 360°
2026-05-04 21:35 39.04845 -76.52278 4076 ft 222 kts 360°
2026-05-04 21:36 39.06396 -76.52184 3812 ft 222 kts
2026-05-04 21:36 39.07922 -76.52058 3490 ft 217 kts
2026-05-04 21:36 39.09370 -76.51917 3194 ft 206 kts
2026-05-04 21:36 39.10775 -76.51780 2881 ft 196 kts
2026-05-04 21:37 39.12078 -76.51721 2724 ft 183 kts 353°
2026-05-04 21:37 39.13281 -76.52042 2579 ft 174 kts 339°
2026-05-04 21:37 39.14376 -76.52728 2370 ft 176 kts 327°
2026-05-04 21:37 39.15348 -76.53701 2092 ft 176 kts 315°
2026-05-04 21:38 39.16139 -76.54897 1780 ft 175 kts 305°
2026-05-04 21:38 39.16677 -76.56227 1524 ft 165 kts 287°
2026-05-04 21:38 39.16872 -76.57639 1337 ft 156 kts 275°
2026-05-04 21:38 39.16934 -76.59038 1133 ft 155 kts 272°
2026-05-04 21:39 39.16974 -76.60422 925 ft 155 kts 275°
2026-05-04 21:39 39.17047 -76.61786 710 ft 154 kts 275°
2026-05-04 21:39 39.17141 -76.63180 491 ft 155 kts 275°
2026-05-04 21:39 39.17222 -76.64570 283 ft 155 kts 275°
2026-05-04 21:40 39.17303 -76.65945 137 ft 150 kts 273°
2026-05-04 21:40 39.17364 -76.67011 147 ft 83 kts 274°
2026-05-04 21:40 39.17392 -76.67507 143 ft 32 kts 274°
2026-05-04 21:40 39.17473 -76.67677 142 ft 21 kts
2026-05-04 21:41 39.17506 -76.67547 142 ft 15 kts 94°
2026-05-04 21:41 39.17520 -76.67428 143 ft 12 kts 59°
2026-05-04 21:41 39.17578 -76.67320 144 ft 16 kts 55°
2026-05-04 21:41 39.17617 -76.67187 145 ft 16 kts 122°
2026-05-04 21:42 39.17532 -76.67092 146 ft 15 kts 137°
2026-05-04 21:42 39.17475 -76.66961 147 ft 17 kts 102°
2026-05-04 21:42 39.17490 -76.66846 148 ft 12 kts 21°
2026-05-04 21:42 39.17537 -76.66927 148 ft 11 kts 279°
2026-05-04 21:43 39.17565 -76.67014 147 ft 9 kts 319°
2026-05-04 21:43 39.17600 -76.67002 147 ft 5 kts 68°
2026-05-04 21:43 39.17610 -76.66968 148 ft 2 kts 68°
2026-05-04 21:43 39.17613 -76.66958 148 ft 0 kts 69°